Location: Artiguedieu
(43.5000°N, 0.5454°E)
Time: 12:23:28
(UTC+00:00)

Meteor 1-20 Rocket - Pass Details

Date: 06 December 2020
Orbit: 819 x 892 km, 81.2° (Epoch: 27 January)

Event Time Altitude Azimuth Distance (km) Brightness Sun altitude
Rises 06:06:41 0° 196° (SSW) 3,427 7.4 -12.3°
Reaches altitude 10° 06:09:06 10° 199° (SSW) 2,505 6.7 -11.8°
Maximum altitude 06:14:47 68° 282° (WNW) 947 4.2 -10.9°
Drops below altitude 10° 06:20:36 10° 5° (N) 2,562 6.5 -9.9°
Sets 06:23:06 0° 8° (N) 3,510 7.3 -9.5°
